Wind_Speed
18 14 16 16 16 14 15 16 16 13 12 13 13 16 18 19 19 18 17 15 14 14 14 13 14 14 16 17 16 15 15 15 15 16 17 17 19 19 19 21 21 19 20
17 16 15 16 16 17 17 18 16 15 14 14 14 17 19 23 19 18 18 19 17 16 15 13 14 15 17 18 17 16 17 17 16 16 18 19 19 19 20 21 20 19 19
14 14 15 16 18 19 20 19 19 18 16 15 16 18 21 22 19 19 20 19 20 18 17 16 17 17 18 18 19 17 17 17 17 17 17 18 19 18 19 19 18 18 17
16 15 16 18 18 19 19 19 18 15 16 18 19 20 21 24 25 20 20 19 20 19 18 18 20 20 21 20 24 18 18 19 18 17 16 17 17 17 17 16 16 15 15
20 19 18 17 16 17 18 15 15 15 17 18 19 21 22 21 21 15 13 17 19 20 20 20 23 24 21 18 21 19 18 18 18 17 16 16 16 17 15 14 14 14 13
18 18 17 15 14 16 15 14 13 15 17 19 19 20 20 20 20 18 24 17 21 20 19 18 30 27 24 21 20 21 17 16 17 17 15 15 15 16 16 14 14 12 11
17 18 15 13 14 14 13 14 13 15 17 20 21 23 21 22 22 25 26 24 23 24 22 17 33 21 22 21 20 19 19 17 17 17 16 15 15 14 14 14 14 13 12
18 17 16 13 13 13 12 14 13 11 14 17 23 25 23 23 26 26 25 25 24 26 24 23 29 15 14 16 18 17 17 17 17 16 15 14 13 13 14 13 13 12 10
17 14 13 12 12 12 11 13 13 11 11 14 15 19 25 24 23 21 48 29 26 22 23 20 16 15 23 17 15 16 18 18 17 17 16 15 14 12 11 12 11 11 9
17 14 13 13 12 12 12 12 14 14 11 16 16 18 22 25 21 26 50 28 19 23 26 19 17 15 15 19 18 17 17 17 16 16 16 16 15 14 13 11 10 10 10
17 16 15 14 12 12 13 12 12 13 11 19 20 17 19 24 20 19 36 28 22 30 27 26 23 20 17 19 19 18 17 17 17 16 17 16 16 15 13 13 13 11 12
18 19 17 15 13 12 14 11 10 10 7 11 13 11 17 16 20 13 22 14 13 12 22 31 26 27 18 18 19 18 18 18 17 16 15 15 14 15 14 14 15 14 14
21 20 17 15 14 12 13 12 8 6 7 8 18 15 20 22 20 23 19 24 17 16 15 27 32 31 18 19 19 18 17 17 16 15 14 13 14 14 14 14 14 14 13
21 21 18 15 15 13 14 12 7 7 9 12 11 10 13 15 16 15 18 19 15 18 17 25 17 28 21 21 21 19 18 17 16 15 14 14 15 16 15 15 15 15 14
23 23 21 16 14 13 14 12 8 6 7 12 9 10 15 16 17 11 12 20 24 22 24 27 25 22 21 21 20 19 18 17 16 15 15 16 17 17 15 15 14 14 14
26 25 22 17 15 15 15 13 11 11 13 12 9 7 6 13 14 15 16 16 25 23 26 22 20 20 19 19 18 18 18 17 17 16 17 16 17 15 15 15 14 14 14
28 26 25 22 18 16 16 16 15 17 16 13 10 10 10 14 19 15 14 15 27 25 21 17 19 16 17 16 17 18 17 16 16 17 18 18 16 16 16 16 15 15 15
34 33 28 27 25 22 20 19 19 21 19 18 15 15 14 16 16 18 18 19 19 23 21 18 17 18 17 16 16 15 15 17 18 18 18 18 18 18 18 17 17 17 16
36 37 33 31 27 23 23 23 23 23 23 19 18 16 16 16 18 17 15 16 18 19 19 18 17 16 16 15 13 14 17 18 18 19 19 19 20 19 20 20 19 18 17
39 37 37 33 31 27 26 28 28 29 28 25 21 20 19 16 17 16 16 16 17 18 18 17 17 17 16 15 14 15 16 18 18 18 17 18 18 19 20 20 20 19 19
43 42 40 38 35 30 28 32 32 32 31 31 26 24 23 20 20 19 22 19 18 19 18 18 16 14 12 13 14 15 15 15 16 17 18 17 19 19 20 21 21 21 20
41 42 41 41 36 31 29 32 33 33 35 32 30 30 29 27 27 23 20 22 23 22 20 18 17 19 15 14 13 15 17 19 19 18 18 19 20 20 20 22 22 22 22
39 39 40 41 36 32 30 30 33 35 36 35 36 34 32 31 33 29 27 26 24 24 24 21 23 24 22 22 20 22 20 22 21 21 21 22 22 22 22 23 23 24 24
41 38 37 39 35 32 30 30 29 32 35 37 39 37 38 36 35 34 32 34 29 26 24 24 22 24 25 23 24 28 30 33 29 25 23 23 23 24 25 25 25 24 25
35 37 36 37 36 33 32 30 29 30 34 37 39 43 39 36 37 43 34 34 33 31 32 28 27 28 26 26 22 25 21 30 26 30 31 26 26 26 26 27 26 25 26
36 38 38 39 37 36 34 30 30 30 32 40 40 44 44 44 39 45 38 43 42 36 36 30 36 33 29 29 31 31 30 32 30 26 25 30 30 28 28 27 28 28 28
Wind_Direction
288 261 267 274 281 277 277 285 285 281 270 254 243 231 226 223 224 222 213 207 198 193 195 193 192 182 181 178 175 169 162 154 149 144 141 136 135 134 133 133 131 135 133
281 268 268 276 281 280 283 285 279 274 262 252 238 231 225 221 219 211 215 218 214 200 198 199 196 184 186 179 173 170 166 160 152 146 144 140 139 137 136 138 135 136 134
272 257 262 275 282 281 281 280 273 266 255 242 233 231 234 237 186 198 205 204 207 204 203 206 196 188 183 177 164 162 164 161 153 151 146 147 143 144 145 143 142 142 139
273 253 261 276 278 276 279 274 265 246 239 236 237 240 240 232 267 194 191 196 198 197 196 192 186 183 184 180 166 158 165 161 155 152 151 149 146 147 149 148 145 145 145
268 266 273 279 275 279 280 265 253 239 237 237 242 243 246 254 270 218 212 193 188 196 197 200 204 197 190 172 162 153 163 161 159 157 154 154 156 150 153 153 156 156 155
276 274 272 275 275 282 276 261 247 242 239 242 244 241 242 246 251 243 224 214 199 200 196 205 214 203 174 163 154 159 157 157 158 159 161 159 158 161 166 167 163 165 164
277 269 271 275 279 282 271 261 251 250 247 246 242 237 236 242 240 235 245 205 196 197 202 205 197 162 167 162 160 159 160 162 159 158 157 158 160 159 164 169 168 169 166
273 267 272 276 278 280 272 262 264 245 247 248 238 234 233 239 240 237 187 189 187 186 197 211 189 244 183 159 161 163 165 167 167 166 167 166 164 167 173 172 171 172 173
268 270 268 274 279 283 277 266 256 251 252 245 233 231 233 237 245 253 180 184 181 210 199 210 205 162 156 168 174 177 174 174 171 169 169 169 175 173 174 177 180 180 171
266 267 262 275 277 284 281 269 269 260 243 236 233 231 227 232 244 162 220 206 203 203 194 195 197 187 177 170 179 182 183 184 185 183 184 187 191 193 194 196 194 193 191
267 266 269 270 272 281 280 274 270 269 259 235 234 242 223 221 226 123 180 188 215 209 194 200 200 178 180 186 195 194 196 197 197 198 198 199 207 210 208 213 215 217 220
261 266 266 262 264 272 275 272 276 289 236 221 225 232 234 223 225 245 192 213 220 232 216 208 211 191 185 197 199 197 200 203 204 200 201 203 207 215 215 218 226 226 231
262 265 263 254 253 263 267 267 267 263 232 183 218 223 219 223 233 229 242 254 230 231 215 215 201 185 195 195 193 193 196 199 203 203 203 203 205 210 213 216 218 224 226
265 263 262 256 252 254 260 260 247 252 229 190 197 199 231 237 236 229 248 228 196 172 197 193 179 167 197 199 199 198 199 200 206 203 202 207 210 214 218 219 222 226 231
264 261 262 259 250 246 249 246 228 180 163 176 199 212 220 222 222 202 205 203 186 200 177 174 183 201 196 197 197 199 201 201 209 212 212 214 218 221 222 225 225 229 235
261 260 259 252 243 246 245 236 212 175 151 147 145 160 167 171 187 196 192 176 192 181 163 165 180 185 191 195 202 210 209 211 215 218 220 220 222 223 225 231 237 240 246
260 257 253 248 244 241 242 237 214 191 176 167 149 135 129 143 142 138 134 143 171 152 160 170 183 199 197 202 210 217 217 219 222 221 219 224 226 229 234 237 241 243 246
250 252 247 248 245 244 240 235 223 203 194 175 173 165 156 155 145 147 153 157 162 168 179 189 191 200 205 210 218 224 228 230 228 226 222 222 227 230 237 240 243 247 246
246 246 244 244 244 240 235 228 223 212 207 196 182 179 173 164 171 168 170 169 174 183 184 190 200 208 213 218 221 226 230 234 235 234 227 229 230 235 240 244 246 250 255
240 238 239 237 238 237 230 224 219 215 211 208 197 192 191 195 196 199 194 193 194 194 198 197 206 205 212 220 231 236 236 241 243 243 243 241 243 246 248 251 254 255 257
234 233 232 233 231 236 229 222 219 217 216 212 208 208 208 209 217 216 219 209 210 209 207 211 221 225 224 216 222 238 242 244 249 255 253 256 254 252 255 257 259 260 262
232 232 227 228 231 236 231 224 225 223 216 214 216 213 218 218 212 222 222 222 218 220 216 213 227 233 237 244 248 247 242 245 246 251 250 249 250 252 254 256 258 261 263
225 228 225 225 230 231 226 222 221 224 220 222 215 229 219 222 229 232 221 224 230 233 223 227 239 240 240 240 252 253 261 259 251 247 248 249 252 253 253 255 257 259 262
229 228 220 221 226 228 226 223 222 226 225 227 227 229 230 225 230 228 231 230 229 226 221 229 230 239 245 244 257 263 266 256 253 253 257 258 259 258 258 260 262 263 265
223 223 225 226 227 226 226 222 222 224 226 227 228 231 234 238 225 236 233 243 227 237 237 236 238 242 247 250 248 250 249 254 264 261 255 256 258 258 261 262 265 268 269
224 225 225 226 227 225 227 234 241 240 230 225 228 234 231 234 236 237 240 232 243 232 233 242 244 235 250 243 247 255 254 266 273 261 261 253 254 257 260 263 266 268 270
Height
3099 3100 3101 3101 3101 3101 3101 3101 3101 3101 3102 3103 3102 3104 3106 3107 3109 3112 3113 3115 3116 3118 3120 3121 3123 3124 3126 3127 3129 3131 3133 3134 3136 3137 3139 3141 3143 3144 3146 3148 3150 3154 3155
3097 3097 3098 3099 3099 3099 3098 3097 3098 3098 3100 3101 3102 3102 3103 3104 3106 3110 3112 3113 3115 3117 3118 3120 3121 3123 3125 3126 3128 3131 3133 3135 3137 3138 3140 3142 3144 3147 3148 3150 3153 3156 3157
3094 3095 3096 3096 3096 3096 3096 3095 3095 3095 3097 3100 3099 3100 3100 3101 3093 3104 3107 3110 3112 3115 3116 3119 3120 3122 3123 3126 3127 3130 3134 3136 3138 3139 3141 3144 3146 3148 3150 3152 3155 3157 3159
3091 3092 3093 3093 3093 3092 3091 3091 3091 3092 3094 3095 3097 3097 3098 3095 3098 3097 3104 3106 3110 3112 3115 3117 3118 3120 3122 3124 3125 3129 3134 3136 3139 3140 3143 3145 3147 3149 3151 3154 3156 3159 3161
3088 3089 3089 3089 3090 3088 3088 3087 3087 3088 3090 3093 3093 3093 3094 3096 3098 3096 3094 3102 3104 3109 3113 3115 3118 3119 3121 3119 3125 3128 3135 3137 3139 3142 3144 3146 3149 3150 3153 3155 3158 3160 3162
3085 3086 3086 3086 3085 3085 3084 3084 3084 3085 3087 3089 3090 3090 3091 3093 3095 3095 3099 3096 3098 3108 3112 3115 3116 3118 3118 3122 3127 3131 3134 3137 3140 3142 3145 3147 3149 3151 3154 3156 3158 3161 3163
3082 3083 3084 3083 3082 3081 3081 3081 3081 3082 3083 3085 3087 3087 3088 3090 3092 3092 3091 3095 3098 3106 3111 3112 3113 3114 3118 3118 3127 3132 3135 3138 3139 3143 3146 3147 3150 3153 3155 3157 3159 3161 3163
3079 3080 3081 3080 3079 3078 3078 3078 3079 3079 3079 3080 3081 3084 3086 3086 3086 3088 3090 3091 3097 3103 3109 3111 3113 3109 3117 3122 3128 3132 3135 3138 3141 3143 3146 3149 3151 3153 3155 3157 3159 3161 3164
3075 3076 3077 3077 3076 3076 3075 3075 3075 3076 3076 3077 3077 3079 3082 3082 3086 3048 3075 3085 3092 3102 3105 3109 3111 3111 3117 3121 3128 3132 3135 3137 3141 3143 3146 3149 3152 3153 3155 3157 3160 3162 3165
3071 3073 3073 3074 3073 3073 3072 3072 3072 3073 3073 3073 3073 3075 3079 3082 3083 3056 3078 3085 3090 3098 3103 3107 3109 3113 3117 3122 3127 3132 3135 3137 3140 3144 3146 3148 3150 3152 3154 3157 3159 3162 3165
3067 3069 3070 3070 3070 3070 3069 3069 3069 3069 3070 3070 3070 3072 3075 3079 3084 3067 3076 3083 3091 3095 3100 3106 3109 3112 3117 3122 3126 3130 3133 3136 3139 3142 3145 3147 3150 3152 3154 3156 3158 3161 3163
3063 3064 3066 3067 3067 3067 3067 3066 3066 3065 3066 3066 3068 3070 3072 3075 3078 3076 3078 3085 3090 3095 3099 3102 3107 3111 3117 3123 3126 3129 3132 3135 3138 3141 3144 3147 3149 3150 3153 3155 3157 3159 3161
3058 3060 3062 3063 3064 3064 3064 3064 3064 3063 3065 3065 3067 3068 3073 3075 3078 3079 3080 3085 3087 3092 3096 3100 3105 3111 3118 3122 3125 3127 3130 3133 3137 3140 3142 3145 3147 3149 3151 3152 3154 3157 3159
3053 3055 3057 3059 3060 3061 3061 3062 3062 3062 3062 3064 3065 3067 3070 3071 3075 3077 3080 3081 3084 3089 3095 3099 3105 3111 3117 3120 3123 3125 3129 3132 3136 3138 3140 3142 3145 3146 3149 3150 3152 3154 3156
3048 3050 3053 3055 3057 3059 3059 3059 3061 3061 3060 3064 3065 3065 3067 3069 3072 3075 3077 3078 3082 3087 3093 3099 3105 3110 3115 3119 3122 3124 3127 3129 3133 3136 3138 3140 3142 3144 3146 3149 3150 3152 3154
3044 3046 3048 3051 3053 3055 3056 3057 3058 3060 3060 3062 3066 3066 3065 3065 3068 3071 3074 3077 3081 3086 3094 3097 3103 3109 3114 3117 3120 3123 3125 3127 3130 3133 3136 3137 3139 3142 3144 3146 3148 3149 3150
3039 3040 3043 3045 3048 3050 3052 3054 3056 3058 3060 3061 3062 3065 3067 3068 3068 3070 3073 3076 3081 3088 3094 3099 3103 3106 3111 3115 3119 3122 3123 3125 3128 3131 3133 3134 3137 3140 3142 3144 3145 3146 3148
3032 3034 3037 3039 3042 3045 3048 3050 3052 3055 3058 3060 3062 3064 3067 3069 3071 3072 3075 3079 3084 3090 3094 3097 3102 3106 3108 3112 3116 3118 3120 3122 3126 3129 3130 3132 3135 3137 3140 3141 3142 3144 3144
3025 3027 3029 3033 3036 3040 3042 3045 3048 3050 3054 3057 3060 3062 3065 3068 3071 3075 3078 3081 3084 3089 3093 3096 3100 3103 3106 3110 3112 3116 3119 3121 3123 3126 3128 3129 3132 3134 3136 3138 3139 3140 3142
3015 3019 3022 3026 3029 3033 3036 3039 3043 3046 3049 3053 3057 3061 3064 3066 3070 3073 3077 3081 3084 3087 3090 3094 3098 3102 3105 3107 3110 3113 3115 3119 3121 3124 3125 3127 3129 3131 3133 3134 3136 3138 3138
3005 3008 3013 3017 3021 3025 3029 3032 3036 3040 3045 3049 3053 3057 3061 3064 3068 3070 3075 3079 3083 3086 3089 3091 3094 3098 3100 3104 3107 3110 3112 3114 3117 3119 3122 3124 3126 3128 3129 3131 3132 3134 3135
2996 3000 3004 3009 3015 3020 3023 3027 3031 3035 3040 3046 3050 3054 3057 3060 3064 3068 3071 3075 3079 3082 3086 3089 3094 3097 3099 3101 3102 3105 3107 3111 3113 3115 3117 3119 3122 3123 3124 3126 3127 3129 3130
2987 2992 2997 3003 3009 3013 3017 3021 3025 3029 3035 3038 3043 3047 3053 3058 3061 3063 3067 3070 3073 3076 3081 3084 3088 3091 3095 3096 3099 3102 3104 3107 3109 3112 3113 3115 3117 3118 3119 3121 3122 3124 3125
2980 2987 2991 2996 3002 3006 3012 3015 3020 3024 3028 3033 3039 3043 3046 3049 3055 3059 3063 3065 3069 3072 3076 3079 3082 3086 3088 3091 3094 3097 3100 3104 3106 3109 3110 3112 3112 3113 3114 3116 3117 3118 3120
2975 2980 2985 2991 2995 3001 3005 3009 3013 3017 3022 3027 3033 3036 3039 3044 3045 3051 3055 3059 3063 3067 3070 3073 3075 3079 3083 3086 3089 3092 3094 3096 3101 3102 3103 3106 3107 3108 3109 3111 3112 3113 3114
2969 2973 2978 2983 2989 2994 2998 3002 3005 3010 3014 3019 3024 3028 3032 3036 3038 3044 3047 3052 3055 3060 3064 3068 3070 3073 3077 3079 3083 3086 3088 3091 3094 3095 3096 3097 3100 3101 3102 3103 3104 3105 3106